Hourly Data Report for September 20, 2017

All times are specified in Local Standard Time (LST). Add 1 hour to adjust for Daylight Saving Time where and when it is observed.

KITCHENER/WATERLOO
ONTARIO

43°27'39.000" N
80°22'43.000" W
321.60 m
6144239
71368
YKF

Download Data

Hourly Data (September 2017)
Hourly Data Report for September 20, 2017
Temp Definition
°C
Dew Point Temp Definition
°C
Rel Hum Definition
%
Wind Dir Definition
10's deg

Wind Spd Definition
km/h
Visibility Definition
km
Stn Press Definition
kPa
Hmdx Definition


Wind Chill Definition


Weather Definition


TIME
00:00 Legend Double Dagger 16.6 16.4 99 36 5 0.4 97.87     Rain,Fog
01:00 Legend Double Dagger 16.3 16.1 99 6 5 0.4 97.84     Fog
02:00 Legend Double Dagger 16.0 15.9 99 9 9 0.2 97.83     Fog
03:00 Legend Double Dagger 16.9 16.7 99 8 4 0.2 97.83     Fog
04:00 Legend Double Dagger 14.5 14.4 99   0 0.2 97.86     Fog
05:00 Legend Double Dagger 14.2 14.1 99 LegendMM 4 0.2 97.88     Fog
06:00 Legend Double Dagger 13.7 13.6 99 6 5 0.2 97.90     Fog
07:00 Legend Double Dagger 14.0 13.9 99   0 0.0 97.95     Fog
08:00 Legend Double Dagger 17.9 17.7 99 LegendMM 4 3.6 98.01     Fog
09:00 Legend Double Dagger 19.8 19.6 99 11 8 6.4 98.03     Fog
10:00 Legend Double Dagger 22.1 18.8 81 12 13 11.3 98.01 29   LegendNANA
11:00 Legend Double Dagger 23.9 18.9 73 11 11 16.1 97.98 31   LegendNANA
12:00 Legend Double Dagger 25.5 17.9 62 12 5 14.5 97.95 31   LegendNANA
13:00 Legend Double Dagger 26.9 17.0 54 11 15 9.7 97.88 32   Haze
14:00 Legend Double Dagger 27.5 15.9 49 14 15 16.1 97.83 32   LegendNANA
15:00 Legend Double Dagger 26.6 17.5 57 13 13 16.1 97.87 32   LegendNANA
16:00 Legend Double Dagger 26.0 17.0 57 15 15 16.1 97.87 31   LegendNANA
17:00 Legend Double Dagger 24.7 16.3 59 11 13 16.1 97.90 30   LegendNANA
18:00 Legend Double Dagger 21.9 16.7 72 12 9 16.1 97.92 27   LegendNANA
19:00 Legend Double Dagger 19.0 16.3 84 12 9 16.1 97.94     LegendNANA
20:00 Legend Double Dagger 18.4 16.2 87 6 4 16.1 97.98     LegendNANA
21:00 Legend Double Dagger 16.1 15.6 97   0 16.1 97.99     LegendNANA
22:00 Legend Double Dagger 15.5 14.9 96 5 5 11.3 97.97     LegendNANA
23:00 Legend Double Dagger 15.0 14.7 98   0 4.8 97.98     Fog

Notes on Data Quality.

Legend

  • E = Estimated
  • M = Missing
  • NA = Not Available
  • ‡ = Partner data that is not subject to review by the National Climate Archives
Date modified: